Location: Eferding
(48.3167°N, 14.0167°E)
Time: 20:32:48
(UTC+00:00)

Cosmos 1869 - Pass Details

Date: 12 November 2019
Orbit: 529 x 554 km, 82.5° (Epoch: 15 December)

Event Time Altitude Azimuth Distance (km) Brightness Sun altitude
Rises 17:05:07 0° 183° (S) 2,693 7.0 -15.9°
Reaches altitude 10° 17:07:16 10° 182° (S) 1,802 6.1 -16.3°
Maximum altitude 17:11:13 74° 98° (E) 565 3.1 -16.9°
Drops below altitude 10° 17:15:11 10° 13° (NNE) 1,803 5.7 -17.6°
Enters shadow 17:15:47 - 12° (NNE) 2,050 6.0 -17.7°
